Regional Weather Roundup
Issued by NWS

Home | Current Version | Previous Version | Text Only | Print | Product List | Glossary On
Versions: 1 2 3 4 5 6 7 8 9 10 11 12 13 14 15 16 17 18 19 20 21 22 23 24 25 26 27 28 29 30 31 32 33 34 35 36 37 38 39 40 41 42 43 44 45 46 47 48 49 50
000
ASUS43 KDTX 261110
RWRMI
MICHIGAN HOURLY REGIONAL WEATHER ROUNDUP
NATIONAL WEATHER SERVICE DETROIT/PONTIAC MI
700 AM EDT FRI MAY 26 2017

NOTE: "FAIR" INDICATES FEW OR NO CLOUDS BELOW 12,000 FEET WITH NO
SIGNIFICANT WEATHER AND/OR OBSTRUCTION TO VISIBILITY.

MIZ047>049-052>055-059>063-066>070-074>076-081>083-261200-
SOUTHEAST LOWER MICHIGAN

CITY           SKY/WX    TMP DP  RH WIND       PRES   REMARKS
ADRIAN         CLOUDY    56  53  90 NW6       29.80R
ALMA           CLOUDY    55  53  91 NW3       29.81R
ANN ARBOR      CLOUDY    55  52  89 NW8       29.78R
BAD AXE        FOG       50  50 100 NW5       29.75R VSB 1/4
CARO           LGT RAIN  55  54  95 NW7       29.76R
DETROIT CITY   CLOUDY    55  52  89 NW8       29.76R
DETROIT        CLOUDY    57  51  80 NW7       29.78R
FLINT          CLOUDY    55  52  89 NW8       29.78R
GROSSE ILE     CLOUDY    56  52  85 NW9       29.76R
HILLSDALE      CLOUDY    52  50  93 NW8       29.81R FOG
HOWELL         CLOUDY    54  51  89 NW6       29.79R

CITY           SKY/WX    TMP DP  RH WIND       PRES   REMARKS
JACKSON        CLOUDY    55  52  89 NW9       29.81R
LAMBERTVILLE   CLOUDY    57  54  90 W6        29.78R
LANSING        CLOUDY    56  50  80 W7        29.81R
LAPEER         CLOUDY    54  53  97 NW9       29.77R
MASON          CLOUDY    55  52  91 W7        29.80R
MONROE         CLOUDY    57  54  88 NW6       29.77R
MT. CLEMENS    CLOUDY    55  55 100 W7        29.74R
PONTIAC        DRIZZLE   54  51  90 NW9       29.76R
PORT HOPE        N/A     50  49  96 NW6       29.73R
PORT HURON     CLOUDY    54  52  94 NW5       29.74R
TRI CITIES     CLOUDY    56  53  90 W9        29.79R
MIDLAND        CLOUDY    56  52  85 W5        29.78R
TROY           CLOUDY    55  51  85 W6        29.78R
SAGINAW HB     CLOUDY    55  50  82 W7        29.77R
$$
MIZ043>046-050>051-056>058-064>065-071>073-077>080-261200-
SOUTHWEST LOWER MICHIGAN

CITY           SKY/WX    TMP DP  RH WIND       PRES   REMARKS
BATTLE CREEK   FOG       52  52 100 NW5       29.83R VSB 1/4
BENTON HARBOR  CLOUDY    52  50  93 CALM      29.83S
BIG RAPIDS     MOCLDY    51  49  92 NW5       29.82R
COLDWATER      CLOUDY    53  53 100 W6        29.83R FOG
FREMONT        FOG       50  50 100 N6        29.82S VSB 1/4
HOLLAND        FOG       50  49  96 CALM      29.83R VSB<1/4
GRAND RAPIDS   PTCLDY    52  52 100 W5        29.82R
IONIA          FAIR      53  51  95 W5        29.82R
KALAMAZOO      FOG       51  49  92 W5        29.84R VSB 1/4
LUDINGTON      FOG       45  45 100 CALM      29.83S VSB 1/4
MARSHALL       CLOUDY    53  52  97 NW5       29.81R FOG
MOUNT PLEASANT CLOUDY    55  51  85 W6        29.80R
MUSKEGON       PTCLDY    51  49  92 N5        29.83R
SOUTH HAVEN    CLOUDY    51  51  99 CALM      29.84R FOG
$$
MIZ016>042-261200-
NORTHERN LOWER MICHIGAN

CITY           SKY/WX    TMP DP  RH WIND       PRES   REMARKS
ALPENA         CLOUDY    54  54 100 NW7       29.77R
BEAVER ISLAND  CLOUDY    53  52  97 CALM      29.82R
BELLAIRE       CLOUDY    54  51  89 CALM      29.81R
CADILLAC       CLOUDY    53  51  95 NW7       29.81R
CHARLEVOIX     CLOUDY    50  50 100 W3        29.84R FOG
FRANKFORT      CLOUDY   N/A N/A N/A CALM      29.84R FOG
GAYLORD        CLOUDY    54  50  86 VRB3      29.79R
GRAYLING       CLOUDY    53  52  95 W5        29.80R
HARBOR SPRINGS FOG       45  45 100 CALM      29.80R VSB 1/4
HOUGHTON LAKE  CLOUDY    54  51  90 NW7       29.80R
MANISTEE       FOG       45  45 100 NW3       29.84R VSB 1/4
OSCODA         CLOUDY    55  54  97 W12       29.75R
PELLSTON       CLEAR     53  50  89 W6        29.80R
ROGERS CITY    CLOUDY    52  52  98 NW6       29.78R
TRAVERSE CITY  FOG       51  50  96 CALM      29.81R VSB 1/4
$$
MIZ007>008-015-261200-
EASTERN UPPER MICHIGAN

CITY           SKY/WX    TMP DP  RH WIND       PRES   REMARKS
KINROSS        CLEAR     49  48  97 NW8       29.80R
MACKINAC ISLAN CLEAR     52  52 100 N6        29.79R
NEWBERRY       PTCLDY    49  48  97 N3        29.81R
S. S. MARIE    CLEAR     48  45  89 W5        29.79R
MUNISING         N/A     42  40  92 CALM      29.82S
$$
MIZ004>006-011>014-085-261200-
CENTRAL UPPER MICHIGAN

CITY           SKY/WX    TMP DP  RH WIND       PRES   REMARKS
MANISTIQUE     CLEAR     48  45  90 CALM      29.82S
ESCANABA       PTCLDY    44  44 100 CALM      29.84R
MENOMINEE      CLEAR     47  47 100 CALM      29.85R FOG
SAWYER-GWINN   CLEAR     41  41 100 CALM      29.84R FOG
$$
MIZ001>003-009>011-084-261200-
WESTERN UPPER MICHIGAN

CITY           SKY/WX    TMP DP  RH WIND       PRES   REMARKS
IRON MOUNTAIN  MOCLDY    46  44  93 CALM      29.83R
HOUGHTON       MOCLDY    49  44  83 E3        29.80R
COPPER HARBOR    N/A     53  48  83 SW5       29.79S
IRONWOOD       LGT RAIN  58  52  80 S8        29.80R
$$

ABBREVIATIONS USED IN REMARKS
   TC - TEMPERATURE IN CELSIUS
  WCI - WIND CHILL INDEX
   HX - HEAT INDEX
  VSB - VISIBILITY




USA.gov is the U.S. government's official web portal to all federal, state and local government web resources and services.